TimeEST,TemperatureF,Dew PointF,Humidity,Sea Level PressureIn,VisibilityMPH,Wind Direction,Wind SpeedMPH,Gust SpeedMPH,PrecipitationIn,Events,Conditions,WindDirDegrees,DateUTC
12:15 AM,32.0,23.0,69,30.09,10.0,WNW,5.8,-,N/A,,Clear,300,2013-02-04 05:15:00
12:35 AM,32.0,23.0,69,30.09,10.0,Calm,Calm,-,N/A,,Clear,0,2013-02-04 05:35:00
1:15 AM,33.8,23.0,65,30.08,10.0,Calm,Calm,-,N/A,,Clear,0,2013-02-04 06:15:00
1:35 AM,32.0,23.0,69,30.08,10.0,Calm,Calm,-,N/A,,Clear,0,2013-02-04 06:35:00
1:55 AM,32.0,23.0,69,30.08,10.0,West,3.5,-,N/A,,Clear,280,2013-02-04 06:55:00
2:15 AM,32.0,23.0,69,30.07,10.0,NW,3.5,-,N/A,,Clear,310,2013-02-04 07:15:00
2:35 AM,30.2,23.0,75,30.08,10.0,Calm,Calm,-,N/A,,Clear,0,2013-02-04 07:35:00
2:55 AM,32.0,23.0,69,30.07,10.0,NW,3.5,-,N/A,,Clear,310,2013-02-04 07:55:00
3:15 AM,30.2,23.0,75,30.07,10.0,NW,3.5,-,N/A,,Clear,310,2013-02-04 08:15:00
3:35 AM,30.2,23.0,75,30.06,10.0,NW,4.6,-,N/A,,Clear,310,2013-02-04 08:35:00
3:55 AM,30.2,23.0,75,30.06,10.0,WNW,3.5,-,N/A,,Clear,290,2013-02-04 08:55:00
4:15 AM,30.2,23.0,75,30.05,10.0,NW,4.6,-,N/A,,Clear,310,2013-02-04 09:15:00
4:35 AM,30.2,21.2,69,30.05,10.0,Calm,Calm,-,N/A,,Clear,0,2013-02-04 09:35:00
6:15 AM,30.2,21.2,69,30.07,10.0,SW,3.5,-,N/A,,Clear,220,2013-02-04 11:15:00
6:35 AM,30.2,21.2,69,30.07,10.0,SW,3.5,-,N/A,,Clear,220,2013-02-04 11:35:00
6:55 AM,30.2,21.2,69,30.07,10.0,Calm,Calm,-,N/A,,Clear,0,2013-02-04 11:55:00
7:35 AM,30.2,23.0,75,30.09,10.0,Calm,Calm,-,N/A,,Clear,0,2013-02-04 12:35:00
7:55 AM,32.0,21.2,64,30.09,10.0,Calm,Calm,-,N/A,,Clear,0,2013-02-04 12:55:00
8:15 AM,30.2,23.0,75,30.10,10.0,Calm,Calm,-,N/A,,Clear,0,2013-02-04 13:15:00
8:35 AM,32.0,24.8,75,30.11,10.0,Calm,Calm,-,N/A,,Clear,0,2013-02-04 13:35:00
8:55 AM,32.0,21.2,64,30.11,10.0,Calm,Calm,-,N/A,,Clear,0,2013-02-04 13:55:00
9:15 AM,32.0,24.8,75,30.12,10.0,Calm,Calm,-,N/A,,Clear,0,2013-02-04 14:15:00
9:35 AM,33.8,23.0,65,30.11,10.0,Calm,Calm,-,N/A,,Clear,0,2013-02-04 14:35:00
9:55 AM,33.8,23.0,65,30.12,10.0,Calm,Calm,-,N/A,,Clear,0,2013-02-04 14:55:00
10:15 AM,35.6,21.2,56,30.11,10.0,Calm,Calm,-,N/A,,Clear,0,2013-02-04 15:15:00
10:35 AM,35.6,21.2,56,30.11,10.0,Calm,Calm,-,N/A,,Clear,0,2013-02-04 15:35:00
10:55 AM,35.6,19.4,52,30.11,10.0,Calm,Calm,-,N/A,,Clear,0,2013-02-04 15:55:00
11:15 AM,37.4,21.2,52,30.10,10.0,ENE,3.5,-,N/A,,Clear,60,2013-02-04 16:15:00
11:35 AM,39.2,23.0,52,30.10,10.0,Calm,Calm,-,N/A,,Clear,0,2013-02-04 16:35:00
11:55 AM,41.0,23.0,49,30.11,10.0,Calm,Calm,-,N/A,,Clear,0,2013-02-04 16:55:00
12:15 PM,41.0,23.0,49,30.10,10.0,SSE,4.6,-,N/A,,Clear,150,2013-02-04 17:15:00
12:35 PM,41.0,21.2,45,30.09,10.0,South,3.5,-,N/A,,Clear,180,2013-02-04 17:35:00
12:55 PM,42.8,21.2,42,30.08,10.0,South,4.6,-,N/A,,Clear,170,2013-02-04 17:55:00
1:15 PM,42.8,21.2,42,30.08,10.0,Calm,Calm,-,N/A,,Clear,0,2013-02-04 18:15:00
1:35 PM,44.6,21.2,39,30.06,10.0,Calm,Calm,-,N/A,,Clear,0,2013-02-04 18:35:00
1:55 PM,44.6,21.2,39,30.05,10.0,ESE,3.5,-,N/A,,Clear,110,2013-02-04 18:55:00
2:15 PM,46.4,21.2,37,30.06,10.0,Calm,Calm,-,N/A,,Clear,0,2013-02-04 19:15:00
2:35 PM,46.4,19.4,34,30.04,10.0,SW,3.5,-,N/A,,Clear,220,2013-02-04 19:35:00
2:55 PM,46.4,19.4,34,30.04,10.0,South,3.5,-,N/A,,Clear,180,2013-02-04 19:55:00
3:15 PM,46.4,17.6,32,30.04,10.0,Calm,Calm,-,N/A,,Clear,0,2013-02-04 20:15:00
3:35 PM,46.4,17.6,32,30.04,10.0,Calm,Calm,-,N/A,,Clear,0,2013-02-04 20:35:00
3:55 PM,46.4,14.0,27,30.02,10.0,Calm,Calm,-,N/A,,Clear,0,2013-02-04 20:55:00
4:15 PM,46.4,14.0,27,30.02,10.0,Calm,Calm,-,N/A,,Clear,0,2013-02-04 21:15:00
4:35 PM,46.4,14.0,27,30.03,10.0,Calm,Calm,-,N/A,,Clear,0,2013-02-04 21:35:00
4:55 PM,48.2,14.0,25,30.01,10.0,Calm,Calm,-,N/A,,Clear,0,2013-02-04 21:55:00
5:15 PM,46.4,15.8,29,30.03,10.0,Calm,Calm,-,N/A,,Clear,0,2013-02-04 22:15:00
5:35 PM,46.4,17.6,32,30.02,10.0,Calm,Calm,-,N/A,,Clear,0,2013-02-04 22:35:00
5:55 PM,46.4,15.8,29,30.02,10.0,Calm,Calm,-,N/A,,Clear,0,2013-02-04 22:55:00
6:15 PM,46.4,15.8,29,30.02,10.0,Calm,Calm,-,N/A,,Clear,0,2013-02-04 23:15:00
6:35 PM,46.4,14.0,27,30.02,10.0,SE,3.5,-,N/A,,Clear,130,2013-02-04 23:35:00
6:55 PM,46.4,17.6,32,30.02,10.0,Calm,Calm,-,N/A,,Clear,0,2013-02-04 23:55:00
7:15 PM,44.6,17.6,34,30.03,10.0,Calm,Calm,-,N/A,,Clear,0,2013-02-05 00:15:00
7:35 PM,44.6,15.8,31,30.04,10.0,Calm,Calm,-,N/A,,Clear,0,2013-02-05 00:35:00
7:55 PM,41.0,23.0,49,30.04,10.0,Calm,Calm,-,N/A,,Clear,0,2013-02-05 00:55:00
8:15 PM,44.6,17.6,34,30.04,10.0,Calm,Calm,-,N/A,,Scattered Clouds,0,2013-02-05 01:15:00
8:35 PM,42.8,19.4,39,30.03,10.0,Calm,Calm,-,N/A,,Scattered Clouds,0,2013-02-05 01:35:00
8:55 PM,41.0,24.8,53,30.03,10.0,NE,3.5,-,N/A,,Mostly Cloudy,50,2013-02-05 01:55:00
9:15 PM,41.0,23.0,49,30.03,10.0,Calm,Calm,-,N/A,,Scattered Clouds,0,2013-02-05 02:15:00
9:35 PM,42.8,19.4,39,30.03,10.0,Calm,Calm,-,N/A,,Scattered Clouds,0,2013-02-05 02:35:00
10:15 PM,42.8,19.4,39,30.03,10.0,Calm,Calm,-,N/A,,Scattered Clouds,0,2013-02-05 03:15:00
10:55 PM,41.0,23.0,49,30.03,10.0,Calm,Calm,-,N/A,,Scattered Clouds,0,2013-02-05 03:55:00
11:15 PM,41.0,21.2,45,30.02,10.0,NE,3.5,-,N/A,,Overcast,50,2013-02-05 04:15:00
11:35 PM,41.0,21.2,45,30.01,10.0,Calm,Calm,-,N/A,,Overcast,0,2013-02-05 04:35:00
11:55 PM,41.0,23.0,49,30.00,10.0,Calm,Calm,-,N/A,,Overcast,0,2013-02-05 04:55:00